Weather in Carvoeiro

Portugal     37°05′58″N   8°28′28″W
temp.,
°C
wind,
m/s
gust,
m/s
humid.,
%
clouds,
%
prec.,
mm/h
press.,
hPa
HPBL,
m
10 may, mon
mon1001:00+16nw45720 0.1 1014541
04:00+15wnw46710 0.1 1014764
07:00+16w57681 0.1 1014991
10:00+16wsw89652 0.2 10141236
13:00+17w910645 0.6 10151240
16:00+17wnw910631 0.2 10151438
19:00+16wnw911650 0.2 10161291
22:00+16nw79662 0.0 10191108
11 may, tue
tue1101:00+15nw68671 0.1 1021842
04:00+15nw476598 0.0 1021615
07:00+14n346564 0.0 1022299
10:00+15nnw13585 0.0 1024519
13:00+17sw55573 0.0 1024796
16:00+17w88560 0.0 1022766
19:00+17wnw87580 0.0 1023863
22:00+16nw68670 0.0 1024729
12 may, wed
wed1201:00+15nw57684 0.0 1023565
04:00+15nw567311 0.0 1022537
07:00+15nw477522 0.0 1022551
10:00+17w457986 0.0 1023610
13:00+18w678454 0.1 1022509
16:00+19wnw895395 0.0 1021279
19:00+18nw81061100 0.0 1021413
22:00+16nw79771 0.0 1023463
13 may, thu
thu1301:00+15nnw68830 0.0 1022383
04:00+15nnw57840 0.0 1021363
07:00+15nnw45840 0.0 1021280
10:00+16nnw23734 0.0 1021345
13:00+19wsw56690 0.0 1019241
16:00+19wnw911685 0.0 1018428
19:00+18nw911725 0.0 1018523
22:00+17nw8118612 0.0 1018595
14 may, fri
fri1401:00+17nw710897 0.0 1017587
04:00+17nw7986100 0.0 1016611
07:00+16nnw68810 0.0 1017658
10:00+17nnw78660 0.0 10181103
13:00+19wnw79625 0.0 1017310
16:00+20nw111259100 0.0 1016367
19:00+19nw1112675 0.0 1017347
22:00+17nnw711737 0.0 1019361